User: anonymous   Login
Location: Chevoux
(46.3801°N, 4.9476°E)
Time: 14:28:48
(UTC+00:00)
Language:

EO-88 - Orbit

View from above orbital plane
View from above orbital plane
View from above satellite
View from above satellite

Ground track
Ground track

The orbit data is extracted from the following two-line orbital elements,

1 42017U 17008BX  21175.17428992  .00002694  00000-0  10053-3 0  9991
2 42017  97.3156 242.6535 0007753  87.6416 272.5711 15.28231874242282
Epoch (UTC): 24 June 2021 04:10:58
Eccentricity: 0.0007753
inclination: 97.3156°
perigee height: 476 km
apogee height: 486 km
right ascension of ascending node: 242.6535°
argument of perigee: 87.6416°
revolutions per day: 15.28231874
mean anomaly at epoch: 272.5711°
orbit number at epoch: 24228

The dashed part of the orbit path shows where the satellite is in the earth's shadow,  

DLR